Location: Campillo
(40.8621°N, 4.2488°W)
Time: 11:42:29
(UTC+00:00)

Meteor 1-11 Rocket - Pass Details

Date: 11 May 2021
Orbit: 831 x 916 km, 81.2° (Epoch: 13 June)

Event Time Altitude Azimuth Distance (km) Brightness Sun altitude
Rises 22:20:56 0° 348° (NNW) 3,561 8.1 -25.5°
Reaches altitude 10° 22:23:26 10° 346° (NNW) 2,613 7.2 -25.7°
Maximum altitude 22:29:23 72° 264° (W) 953 3.9 -26.3°
Enters shadow 22:30:22 59° 207° (SSW) 1,035 3.9 -26.3°
